Location: Blue Mountain Vista Observatory
(40.6992°N, 75.9422°W)
Time: 04:58:00
(UTC-05:00)

IDEFIX/ARIANE 42P - Visible Passes

Search period start: 11 December 2016 00:00
Search period end: 21 December 2016 00:00
Orbit: 784 x 804 km, 98.2° (Epoch: 10 December)

Date Brightness Start Highest point End Pass type
(mag) Time Alt. Az. Time Alt. Az. Time Alt. Az.
11 Dec 5.5 05:13:10 10° NE 05:16:31 17° E 05:19:51 10° SE visible
11 Dec 4.0 18:09:55 10° SSW 18:14:46 40° W 18:19:39 10° NNW visible
12 Dec 2.7 06:22:58 10° NNE 06:28:11 80° ESE 06:33:25 10° S visible
12 Dec 2.8 17:41:12 10° S 17:46:22 75° WSW 17:51:34 10° NNW visible
13 Dec 3.9 05:54:51 10° NNE 05:59:48 43° E 06:04:45 10° S visible
13 Dec 2.6 17:13:00 10° SSE 17:18:05 60° ENE 17:23:11 10° N visible
13 Dec 5.5 18:54:59 10° SW 18:58:05 16° W 19:01:11 10° NW visible
14 Dec 5.0 05:27:09 10° NE 05:31:18 24° E 05:35:27 10° SSE visible
14 Dec 4.6 18:25:02 10° SSW 18:29:30 29° W 18:34:00 10° NW visible
15 Dec 5.7 05:00:28 10° ENE 05:02:42 13° E 05:04:55 10° ESE visible
15 Dec 2.5 06:37:37 10° N 06:42:49 75° WNW 06:48:02 10° SSW visible
15 Dec 3.4 17:55:59 10° S 18:01:02 54° W 18:06:07 10° NNW visible
16 Dec 3.2 06:09:21 10° NNE 06:14:30 60° E 06:19:39 10° S visible
16 Dec 2.5 17:27:31 10° SSE 17:32:41 83° ENE 17:37:53 10° NNW visible
16 Dec 5.8 19:11:34 10° WSW 19:12:55 11° W 19:14:16 10° WNW visible
17 Dec 4.4 05:41:24 10° NNE 05:46:04 33° E 05:50:44 10° SSE visible
17 Dec 2.8 16:59:33 10° SE 17:04:27 46° ENE 17:09:23 10° N visible
17 Dec 5.1 18:40:24 10° SW 18:44:16 21° W 18:48:09 10° NW visible
18 Dec 5.4 05:14:00 10° NE 05:17:31 18° E 05:21:01 10° SE visible
18 Dec 2.7 06:52:20 10° N 06:57:26 54° WNW 07:02:31 10° SSW visible
18 Dec 4.1 18:10:56 10° SSW 18:15:44 38° W 18:20:34 10° NNW visible
19 Dec 2.7 06:23:55 10° NNE 06:29:10 83° ESE 06:34:24 10° SSW visible
19 Dec 2.9 17:42:10 10° S 17:47:20 72° WSW 17:52:31 10° NNW visible
20 Dec 3.8 05:55:47 10° NNE 06:00:47 45° E 06:05:47 10° S visible
20 Dec 2.6 17:13:56 10° SSE 17:19:02 63° ENE 17:24:10 10° N visible
20 Dec 5.6 18:56:08 10° SW 18:59:03 15° W 19:02:00 10° NW visible
